BEIDOU-3 M10 (43582 NORAD) Tracking and Keplerian Element Data

This shows tracking and keplerian element data for the satellite.

Feedback or suggestion? Click here.




ElementValue
Catalog43582
NameBEIDOU-3 M10
Epoch Orbit53
Epoch Day239.30038616
Epoch Year2018
RAAN279.8139
Inclination54.9683
Eccentricity0.0003932
Argument of Perigee289.1792
Mean Anonmoly69.5764
Mean Motion1.86232168
Decay Rate1.8E-07
L11 43582U 18062B 18239.30038616 .00000018 00000-0 00000-0 0 9998
L22 43582 54.9683 279.8139 0003932 289.1792 69.5764 1.86232168 535

Live tracking and technical data element details for BEIDOU-3 M10 (NORAD 43582). BEIDOU-3 M10 can be tracked NOW for your location showing map with azimuth and elevation plus other details from your city location.

Track the satellite on the map from your city or location and see movement details for azimuth, elevation, latitude, longitude, range, height, and movement on the map or in text.







IsCatalogInMostPopularTable: catalog: 43582, numindb: 51
Update: records affected: 1



GetName: 43582 BEIDOU-3 M10

Hit Count: updated at: Fri, 16 Nov 2018 03:44:37 GMT